Wind_Speed
3 2 3 3 3 2 2 2 2 3 4 6 8 10 12 13 14 13 10 8 9 9 10 9 8 7 5 2 2 1 3 4 6 7 8 8 6 6 6 5 5 4 4
3 3 4 4 4 4 4 3 3 3 4 4 6 8 9 10 12 13 12 9 8 9 10 10 8 7 5 3 3 2 3 4 6 7 6 5 5 5 6 6 6 5 5
3 5 6 5 6 5 6 6 5 5 5 5 5 6 7 8 10 11 12 10 8 8 9 10 10 8 6 4 5 4 4 5 6 7 7 6 5 6 6 6 6 5 5
2 4 5 6 6 7 8 8 9 8 8 7 7 7 7 7 8 9 10 10 9 8 8 9 10 10 8 6 5 5 5 5 6 7 7 7 6 4 8 7 6 6 6
3 4 5 6 6 9 9 10 11 10 10 11 11 9 9 9 8 8 8 9 9 8 7 8 9 10 10 9 7 6 6 6 7 9 9 9 7 10 9 8 7 7 6
7 6 7 8 8 9 11 12 12 12 13 13 14 13 12 12 11 11 9 9 9 9 9 8 8 9 10 11 9 7 6 6 8 9 10 10 12 13 12 11 9 8 8
9 9 9 10 11 13 13 14 14 15 16 15 16 16 16 15 14 13 12 11 11 10 10 10 9 9 9 10 10 9 8 7 8 9 10 11 12 13 12 11 11 10 9
10 10 10 11 11 12 13 14 16 17 17 17 18 18 19 18 16 15 15 14 13 12 12 13 12 11 11 11 11 11 9 9 9 10 10 11 12 13 13 13 12 12 11
11 11 12 12 13 13 14 16 17 19 21 21 21 21 21 21 21 19 18 17 16 15 14 14 14 13 13 13 12 12 12 11 11 12 12 12 13 14 14 14 14 14 13
11 13 14 15 15 16 17 17 18 20 21 23 24 24 25 24 24 23 23 22 21 19 17 17 17 17 16 16 15 14 14 13 13 13 14 15 15 16 16 16 16 16 16
14 14 15 17 18 18 19 20 21 21 22 23 25 26 26 28 28 25 25 26 25 23 22 21 20 20 20 18 18 18 18 15 16 15 15 16 17 18 18 18 19 19 19
16 18 19 20 21 21 22 22 23 24 25 26 26 27 28 29 29 29 28 28 28 27 26 26 25 24 25 22 21 21 20 20 20 19 18 17 18 19 20 20 21 21 21
18 20 21 21 22 22 23 23 24 24 25 27 28 30 30 31 31 31 30 31 31 31 30 30 30 29 28 27 25 24 24 24 24 23 21 20 21 20 21 22 22 22 22
19 20 22 23 23 24 24 25 26 27 28 29 29 31 32 32 33 33 34 32 33 33 33 34 33 34 32 32 30 29 28 27 27 27 27 24 24 23 23 23 23 23 23
19 20 21 23 24 25 26 28 29 30 31 32 33 34 35 35 35 36 36 36 35 35 36 36 37 36 36 35 35 34 32 31 31 31 30 30 29 29 27 26 25 25 25
20 21 22 23 25 26 28 30 31 33 34 34 36 37 39 39 39 39 39 39 39 38 37 38 41 41 40 39 39 37 36 36 35 35 34 34 33 33 32 31 30 28 28
22 23 25 26 27 29 31 33 35 37 38 40 40 41 42 43 44 44 44 43 42 42 42 41 41 42 45 44 43 42 41 41 41 40 39 38 38 36 37 36 35 34 32
24 25 27 28 30 33 35 36 36 37 38 39 41 42 44 46 46 47 47 47 47 46 46 46 44 44 45 47 48 47 45 45 44 44 44 44 43 42 41 40 39 38 38
26 27 29 31 33 34 34 33 32 33 33 34 35 37 40 43 46 47 48 49 49 49 49 49 48 48 47 48 49 47 49 50 49 46 46 46 46 46 45 44 43 43 42
28 30 32 33 31 31 31 30 31 32 33 33 34 34 36 39 42 45 45 46 47 49 49 50 50 50 50 51 52 53 52 50 48 51 49 48 49 50 49 49 48 47 47
30 32 30 28 28 28 29 29 31 33 34 35 35 35 34 34 36 40 43 43 43 44 46 47 49 50 50 50 52 54 54 54 53 51 48 49 52 51 51 53 52 52 52
30 26 25 24 25 26 29 30 29 30 31 31 31 32 31 31 31 32 36 39 40 41 42 44 46 46 48 48 49 51 54 54 55 54 55 53 55 42 54 51 53 53 55
23 23 21 22 24 26 26 26 27 28 29 29 28 27 27 27 26 25 27 31 33 36 37 38 39 40 43 43 45 47 49 52 50 50 53 50 47 51 46 49 55 53 53
19 19 20 22 23 24 25 26 27 27 25 25 24 24 23 23 22 22 22 22 24 25 25 25 24 24 26 27 28 30 37 43 45 51 49 53 53 44 39 37 43 43 47
17 19 21 23 24 25 26 26 27 27 25 23 23 22 21 21 20 19 19 20 20 21 22 23 23 22 23 23 26 30 34 36 39 42 49 46 49 55 60 65 62 55 52
18 20 23 25 26 27 27 27 27 26 25 23 22 22 21 20 20 21 21 22 23 24 24 25 25 25 25 27 28 29 32 33 36 40 46 47 45 46 51 57 62 62 57
Wind_Direction
202 201 231 234 216 252 291 315 335 356 9 14 17 19 16 14 13 13 13 13 15 15 18 23 21 20 25 322 357 301 234 223 211 185 222 231 221 209 210 206 201 202 187
196 199 223 259 242 255 273 293 294 317 339 358 7 9 10 10 7 7 5 9 11 12 19 21 23 20 18 33 11 327 282 245 232 224 234 251 243 234 227 224 219 211 202
180 204 216 250 268 255 264 273 281 288 300 317 332 345 356 357 356 356 357 356 0 2 5 13 17 15 3 348 323 308 285 261 247 237 232 243 246 244 228 215 212 218 215
196 224 230 244 260 256 258 261 277 283 288 289 295 310 323 335 342 345 347 348 346 347 348 357 4 5 357 342 322 303 280 256 245 242 236 240 237 228 227 215 215 220 224
207 233 251 243 239 249 255 262 264 271 279 285 287 287 298 304 313 322 330 336 332 328 332 335 348 354 354 344 329 308 284 264 247 238 235 233 229 218 246 225 227 226 228
245 247 257 273 276 273 265 254 254 261 269 274 278 283 286 287 295 305 311 318 322 317 314 315 326 336 343 343 334 318 296 273 260 247 240 239 230 236 240 239 243 238 234
240 250 257 268 278 279 275 265 260 258 259 263 268 275 279 285 289 293 295 301 311 311 305 300 302 311 320 327 330 325 308 287 266 254 246 247 243 238 238 241 243 243 243
253 262 271 273 272 273 273 270 265 264 264 264 267 270 274 276 279 281 286 292 297 303 302 297 292 292 296 305 312 317 312 295 277 264 255 254 248 244 245 247 246 246 245
269 270 271 273 277 276 274 273 271 267 268 266 266 269 270 271 273 276 275 279 281 286 291 293 292 285 283 284 292 300 305 301 289 276 263 255 250 249 250 247 246 249 249
271 273 275 277 278 279 277 275 274 273 273 273 273 272 273 275 273 274 276 275 273 273 275 280 286 287 281 277 278 281 289 296 292 282 273 266 259 255 253 251 250 250 251
273 275 277 278 278 278 278 277 276 274 273 272 273 273 272 271 271 271 269 267 266 267 272 273 275 278 278 275 276 276 274 278 281 284 280 274 268 263 259 257 257 257 258
275 277 279 281 283 283 281 280 278 276 276 275 274 274 274 274 272 270 266 265 264 265 264 268 270 273 275 275 271 269 268 269 270 272 275 276 274 270 264 261 260 259 259
277 281 283 284 285 286 285 285 283 281 279 277 276 275 274 274 274 274 270 265 263 264 265 265 265 267 270 271 269 268 266 264 266 268 269 271 272 270 270 267 262 261 262
276 278 281 283 284 285 286 285 284 284 284 282 279 278 278 277 276 275 274 270 264 261 263 263 263 265 265 267 267 267 266 265 264 265 266 266 267 267 266 266 265 265 263
280 282 283 284 285 286 286 286 286 285 284 284 283 282 281 279 278 278 277 276 272 268 264 263 264 263 264 264 263 263 263 265 264 264 263 262 264 266 265 264 265 265 265
283 283 284 284 285 286 287 289 289 289 288 286 284 283 282 280 278 276 275 275 274 272 267 263 263 264 264 263 262 261 262 262 264 264 264 263 259 261 264 264 263 263 264
285 286 287 290 292 292 291 290 289 288 286 284 282 279 278 277 276 276 274 272 271 271 270 266 263 261 262 263 262 261 261 261 263 265 266 265 262 257 258 260 262 263 262
284 288 291 292 293 293 292 292 290 288 287 284 282 280 278 276 275 273 272 272 271 269 268 268 266 263 262 261 262 262 261 261 261 261 263 264 264 264 261 256 256 259 262
286 288 290 293 295 295 295 296 297 297 295 291 287 283 277 274 273 273 272 271 270 269 268 268 266 265 262 261 261 261 259 260 258 257 258 259 261 262 263 263 259 258 256
284 289 295 297 298 301 302 304 305 303 300 297 292 288 283 276 272 270 271 271 271 270 270 270 270 268 268 266 265 265 264 261 262 259 258 258 259 260 260 262 263 261 261
285 291 293 297 300 301 302 305 305 303 301 298 294 292 290 284 276 270 269 270 270 269 269 268 268 269 269 269 269 267 267 265 263 261 263 260 258 258 258 259 260 261 262
287 289 292 293 296 302 305 307 308 306 303 299 297 295 294 291 284 276 270 269 269 270 269 269 270 270 271 270 271 271 270 268 268 264 261 261 261 274 258 261 262 262 261
281 285 289 294 298 301 304 308 312 312 307 302 300 299 300 300 295 290 281 276 273 271 271 272 273 273 273 273 273 273 274 274 272 267 266 263 267 259 261 264 262 264 262
279 281 285 292 297 301 305 308 311 310 306 301 294 290 292 294 296 292 288 284 281 280 279 277 276 276 277 276 277 278 274 277 278 276 269 266 258 258 253 259 260 263 266
272 281 290 296 300 303 307 311 314 313 309 306 301 295 292 292 291 290 291 289 286 283 281 279 275 271 270 269 269 272 275 276 276 278 281 274 267 262 261 266 270 268 264
283 292 297 301 305 307 310 313 314 314 313 309 308 301 298 299 300 298 298 295 292 290 289 288 287 282 276 271 270 269 272 274 275 275 277 279 279 271 271 271 270 269 265
Height
3182 3181 3181 3182 3181 3182 3182 3182 3182 3182 3182 3182 3181 3181 3180 3179 3178 3177 3176 3175 3174 3173 3172 3170 3169 3168 3169 3168 3167 3167 3167 3167 3167 3168 3168 3167 3167 3167 3167 3167 3167 3166 3166
3181 3181 3181 3181 3181 3182 3182 3182 3182 3182 3182 3182 3181 3181 3180 3179 3178 3177 3176 3175 3174 3173 3172 3171 3169 3168 3168 3168 3167 3167 3167 3167 3167 3166 3166 3167 3167 3167 3166 3166 3166 3166 3166
3180 3180 3181 3181 3181 3181 3181 3181 3182 3182 3181 3181 3180 3180 3180 3179 3178 3177 3176 3175 3174 3173 3173 3172 3170 3169 3168 3167 3167 3166 3166 3166 3166 3166 3166 3166 3166 3166 3165 3165 3165 3165 3165
3179 3180 3180 3180 3180 3180 3181 3181 3181 3181 3181 3180 3179 3179 3179 3178 3178 3177 3176 3175 3174 3173 3173 3172 3171 3170 3169 3167 3166 3165 3165 3164 3165 3165 3165 3165 3165 3165 3164 3164 3164 3164 3164
3179 3179 3179 3179 3179 3179 3179 3179 3179 3180 3180 3179 3179 3178 3178 3177 3177 3176 3175 3174 3173 3173 3172 3172 3171 3170 3169 3167 3166 3165 3164 3164 3163 3163 3163 3164 3164 3164 3163 3163 3163 3163 3163
3176 3178 3179 3178 3178 3178 3178 3178 3178 3178 3178 3178 3178 3177 3177 3176 3176 3175 3174 3173 3172 3171 3171 3170 3170 3169 3168 3168 3166 3165 3164 3163 3163 3162 3162 3162 3162 3162 3162 3162 3162 3162 3162
3176 3176 3177 3177 3177 3177 3177 3176 3176 3176 3176 3176 3175 3175 3175 3174 3175 3174 3173 3172 3171 3171 3170 3169 3168 3168 3167 3166 3165 3164 3163 3162 3161 3161 3161 3160 3160 3160 3160 3160 3160 3161 3161
3174 3175 3175 3175 3175 3175 3175 3174 3174 3174 3173 3173 3173 3173 3172 3172 3171 3171 3171 3171 3170 3169 3168 3167 3166 3166 3165 3165 3164 3163 3162 3161 3160 3160 3159 3159 3159 3158 3158 3159 3159 3159 3159
3172 3173 3172 3172 3172 3173 3172 3172 3171 3171 3171 3171 3171 3170 3170 3169 3169 3168 3168 3167 3167 3167 3166 3165 3164 3163 3163 3162 3162 3161 3161 3160 3159 3158 3157 3157 3156 3156 3156 3156 3156 3156 3157
3170 3170 3171 3170 3170 3169 3169 3169 3168 3168 3167 3167 3167 3167 3166 3166 3166 3165 3165 3164 3163 3163 3162 3162 3161 3160 3160 3160 3159 3159 3158 3158 3157 3156 3156 3155 3155 3154 3154 3154 3153 3153 3154
3168 3168 3168 3167 3167 3166 3166 3165 3165 3164 3163 3163 3162 3161 3161 3161 3161 3161 3160 3159 3159 3159 3159 3158 3158 3157 3156 3156 3156 3156 3155 3155 3154 3154 3153 3153 3152 3152 3151 3151 3151 3151 3151
3165 3165 3164 3164 3164 3163 3162 3161 3161 3160 3159 3158 3157 3156 3156 3155 3154 3155 3155 3154 3154 3154 3154 3154 3153 3153 3152 3152 3152 3151 3151 3151 3150 3150 3150 3150 3149 3149 3148 3148 3147 3147 3147
3163 3162 3161 3161 3160 3159 3159 3158 3156 3156 3155 3154 3152 3151 3150 3149 3148 3148 3148 3148 3148 3148 3149 3149 3148 3147 3147 3147 3147 3147 3146 3146 3146 3146 3146 3146 3145 3145 3145 3145 3144 3143 3143
3160 3159 3158 3157 3156 3155 3154 3153 3152 3151 3150 3149 3147 3146 3145 3144 3143 3142 3141 3142 3142 3142 3142 3142 3142 3142 3142 3141 3141 3141 3141 3141 3141 3141 3141 3141 3140 3140 3140 3140 3140 3140 3139
3157 3156 3155 3154 3152 3151 3150 3149 3147 3146 3145 3143 3142 3140 3138 3138 3137 3136 3135 3134 3135 3135 3136 3136 3135 3136 3135 3135 3135 3135 3135 3135 3135 3135 3135 3136 3136 3135 3135 3135 3135 3135 3135
3152 3151 3150 3149 3148 3147 3145 3143 3142 3140 3138 3137 3135 3133 3131 3130 3129 3128 3128 3127 3127 3127 3128 3127 3128 3128 3128 3128 3128 3128 3129 3128 3128 3128 3128 3128 3129 3129 3129 3129 3129 3129 3129
3147 3146 3145 3144 3143 3141 3140 3138 3135 3133 3131 3129 3126 3124 3122 3120 3119 3118 3118 3118 3118 3118 3117 3118 3118 3118 3118 3119 3119 3121 3120 3121 3120 3121 3121 3121 3120 3121 3121 3122 3123 3123 3123
3143 3142 3140 3139 3137 3135 3132 3130 3128 3125 3123 3120 3118 3115 3113 3110 3109 3108 3107 3107 3108 3108 3107 3107 3108 3108 3108 3108 3109 3111 3111 3112 3112 3112 3112 3112 3113 3114 3114 3114 3114 3115 3116
3139 3137 3135 3133 3131 3128 3125 3123 3120 3117 3114 3111 3109 3106 3104 3101 3099 3097 3097 3097 3097 3096 3096 3096 3097 3097 3097 3097 3097 3098 3100 3100 3101 3101 3101 3102 3102 3103 3105 3106 3107 3107 3107
3133 3131 3129 3126 3124 3121 3118 3116 3112 3109 3106 3103 3099 3096 3094 3091 3089 3086 3086 3086 3086 3085 3085 3086 3086 3086 3086 3086 3086 3086 3087 3089 3089 3091 3092 3093 3093 3092 3094 3096 3096 3098 3099
3128 3126 3124 3121 3118 3115 3112 3110 3106 3102 3098 3094 3090 3087 3084 3082 3079 3077 3076 3075 3075 3075 3075 3074 3075 3075 3076 3075 3075 3075 3075 3076 3078 3079 3081 3082 3083 3082 3082 3084 3085 3085 3086
3122 3120 3119 3116 3113 3111 3107 3104 3101 3097 3093 3088 3084 3080 3077 3073 3071 3069 3067 3066 3066 3065 3065 3065 3065 3065 3065 3065 3064 3062 3062 3065 3065 3067 3068 3069 3071 3070 3072 3071 3072 3073 3073
3118 3116 3114 3112 3109 3106 3103 3099 3095 3091 3087 3083 3078 3074 3070 3068 3065 3063 3060 3059 3058 3056 3056 3055 3055 3055 3054 3055 3054 3054 3052 3051 3053 3056 3055 3058 3059 3060 3060 3060 3059 3061 3061
3113 3112 3110 3108 3105 3102 3098 3094 3090 3087 3083 3079 3075 3071 3067 3063 3060 3057 3055 3053 3051 3050 3048 3047 3047 3046 3046 3045 3046 3045 3044 3042 3041 3038 3044 3044 3049 3048 3048 3048 3047 3049 3050
3109 3107 3105 3102 3099 3096 3093 3089 3086 3082 3078 3073 3069 3066 3062 3059 3055 3053 3050 3048 3046 3044 3042 3041 3039 3039 3038 3038 3038 3038 3036 3035 3034 3032 3025 3031 3033 3035 3036 3036 3034 3037 3035
3105 3103 3100 3097 3094 3091 3087 3084 3081 3077 3073 3069 3065 3061 3058 3055 3053 3050 3047 3044 3042 3040 3038 3036 3035 3034 3032 3030 3029 3028 3028 3028 3027 3024 3019 3018 3018 3022 3022 3022 3021 3022 3024